• In Latvia
  • List of Countries
  • For 7 days
  • Water Temperature
  • Satellite Maps
  • Weather Map
  • Weather Widgets
  • user-avatar
    Login

    Hourly Weather Mazsalaca

    Today, 20 October, Saturday

    Time Temperature Precipitation Wind Pressure Humidity
    00:00 +6°C° 0 mm 2 mps 761 mmHg 93%
    01:00 +6°C° 0 mm 2 mps 761 mmHg 93%
    02:00 +5°C° 0 mm 2 mps 761 mmHg 94%
    03:00 +5°C° 0 mm 2 mps 761 mmHg 94%
    04:00 +5°C° 0 mm 2 mps 760 mmHg 94%
    05:00 +5°C° 0 mm 2 mps 760 mmHg 94%
    06:00 +5°C° 0 mm 2 mps 761 mmHg 94%
    07:00 +5°C° 0 mm 2 mps 761 mmHg 94%
    08:00 +6°C° 0 mm 2 mps 761 mmHg 92%
    09:00 +7°C° 0 mm 2 mps 761 mmHg 87%
    10:00 +8°C° 0 mm 2 mps 761 mmHg 82%
    11:00 +9°C° 0 mm 2 mps 761 mmHg 78%
    12:00 +9°C° 0 mm 2 mps 761 mmHg 75%
    13:00 +10°C° 0 mm 2 mps 761 mmHg 72%
    14:00 +10°C° 0 mm 2 mps 761 mmHg 72%
    15:00 +9°C° 0 mm 2 mps 761 mmHg 76%
    16:00 +9°C° 0 mm 1 mps 761 mmHg 81%
    17:00 +8°C° 0 mm 1 mps 761 mmHg 85%
    18:00 +7°C° 0 mm 1 mps 761 mmHg 87%
    19:00 +7°C° 0 mm 1 mps 761 mmHg 90%
    20:00 +6°C° 0 mm 1 mps 761 mmHg 92%
    21:00 +6°C° 0 mm 1 mps 761 mmHg 92%
    22:00 +6°C° 0 mm 1 mps 762 mmHg 93%
    23:00 +6°C° 0 mm 1 mps 762 mmHg 93%

    Tomorrow, 21 October, Sunday

    Time Temperature Precipitation Wind Pressure Humidity
    00:00 +5°C° 0 mm 1 mps 762 mmHg 93%
    01:00 +5°C° 0 mm 1 mps 762 mmHg 94%
    02:00 +5°C° 0 mm 1 mps 762 mmHg 94%
    03:00 +5°C° 0 mm 1 mps 762 mmHg 94%
    04:00 +5°C° 0 mm 1 mps 762 mmHg 94%
    05:00 +5°C° 0 mm 1 mps 762 mmHg 94%
    06:00 +5°C° 0 mm 1 mps 762 mmHg 94%
    07:00 +4°C° 0 mm 2 mps 763 mmHg 94%
    08:00 +4°C° 0 mm 2 mps 763 mmHg 95%
    09:00 +5°C° 0 mm 2 mps 763 mmHg 89%
    10:00 +7°C° 0 mm 2 mps 763 mmHg 84%
    11:00 +8°C° 0 mm 3 mps 763 mmHg 79%
    12:00 +9°C° 0 mm 3 mps 763 mmHg 76%
    13:00 +9°C° 0 mm 3 mps 763 mmHg 74%
    14:00 +10°C° 0 mm 3 mps 762 mmHg 72%
    15:00 +9°C° 0 mm 3 mps 762 mmHg 77%
    16:00 +8°C° 0 mm 3 mps 762 mmHg 81%
    17:00 +7°C° 0 mm 3 mps 762 mmHg 86%
    18:00 +7°C° 0 mm 3 mps 761 mmHg 86%
    19:00 +6°C° 0 mm 4 mps 761 mmHg 86%
    20:00 +6°C° 0 mm 4 mps 761 mmHg 86%
    21:00 +6°C° 0 mm 4 mps 760 mmHg 86%
    22:00 +7°C° 0 mm 5 mps 760 mmHg 86%
    23:00 +7°C° 0 mm 5 mps 760 mmHg 87%

    Day after tomorrow, 22 October, Monday

    Time Temperature Precipitation Wind Pressure Humidity
    00:00 +7°C° 0 mm 5 mps 759 mmHg 87%
    01:00 +7°C° 0 mm 6 mps 759 mmHg 88%
    02:00 +7°C° 0 mm 6 mps 758 mmHg 89%
    03:00 +8°C° 0.1 mm 6 mps 758 mmHg 89%
    04:00 +8°C° 0.1 mm 6 mps 757 mmHg 88%
    05:00 +8°C° 0.1 mm 7 mps 757 mmHg 88%
    06:00 +9°C° 0.4 mm 7 mps 756 mmHg 88%
    07:00 +9°C° 0.4 mm 7 mps 756 mmHg 88%
    08:00 +9°C° 0.4 mm 7 mps 755 mmHg 88%
    09:00 +9°C° 1 mm 7 mps 755 mmHg 89%
    10:00 +10°C° 1 mm 6 mps 755 mmHg 90%
    11:00 +10°C° 1 mm 6 mps 754 mmHg 90%
    12:00 +9°C° 1.3 mm 6 mps 754 mmHg 89%
    13:00 +9°C° 1.3 mm 5 mps 754 mmHg 88%
    14:00 +10°C° 1.3 mm 4 mps 754 mmHg 87%
    15:00 +8°C° 0.1 mm 4 mps 754 mmHg 84%
    16:00 +8°C° 0.1 mm 4 mps 754 mmHg 81%
    17:00 +7°C° 0.1 mm 4 mps 754 mmHg 78%
    18:00 +7°C° 0 mm 4 mps 755 mmHg 79%
    19:00 +6°C° 0 mm 4 mps 755 mmHg 79%
    20:00 +5°C° 0 mm 3 mps 755 mmHg 79%
    21:00 +5°C° 0 mm 3 mps 755 mmHg 79%
    22:00 +4°C° 0 mm 3 mps 755 mmHg 79%
    23:00 +4°C° 0 mm 3 mps 755 mmHg 79%

    23 October, Tuesday

    Time Temperature Precipitation Wind Pressure Humidity
    00:00 +4°C° 0 mm 3 mps 755 mmHg 79%
    01:00 +4°C° 0 mm 3 mps 755 mmHg 79%
    02:00 +4°C° 0 mm 3 mps 754 mmHg 80%
    03:00 +4°C° 0 mm 3 mps 754 mmHg 80%
    04:00 +4°C° 0 mm 3 mps 753 mmHg 81%
    05:00 +4°C° 0 mm 4 mps 752 mmHg 82%
    06:00 +4°C° 0 mm 4 mps 751 mmHg 81%
    07:00 +4°C° 0 mm 4 mps 750 mmHg 81%
    08:00 +3°C° 0 mm 5 mps 749 mmHg 81%
    09:00 +5°C° 0 mm 5 mps 748 mmHg 78%
    10:00 +4°C° 0 mm 6 mps 747 mmHg 76%
    11:00 +5°C° 0 mm 6 mps 745 mmHg 73%
    12:00 +5°C° 0.7 mm 7 mps 743 mmHg 75%
    13:00 +5°C° 0.7 mm 8 mps 741 mmHg 77%
    14:00 +3°C° 0.7 mm 9 mps 739 mmHg 79%
    15:00 +5°C° 1.1 mm 8 mps 738 mmHg 81%
    16:00 +5°C° 1.1 mm 7 mps 736 mmHg 84%
    17:00 +5°C° 1.1 mm 7 mps 735 mmHg 86%
    18:00 +5°C° 0.4 mm 6 mps 734 mmHg 87%
    19:00 +6°C° 0.4 mm 5 mps 733 mmHg 88%
    20:00 +6°C° 0.4 mm 4 mps 732 mmHg 89%
    21:00 +6°C° 0.4 mm 5 mps 732 mmHg 90%
    22:00 +6°C° 0.4 mm 5 mps 731 mmHg 91%
    23:00 +5°C° 0.4 mm 5 mps 731 mmHg 91%

    24 October, Wednesday

    Time Temperature Precipitation Wind Pressure Humidity
    00:00 +5°C° 0.6 mm 5 mps 731 mmHg 88%
    01:00 +4°C° 0.6 mm 6 mps 731 mmHg 84%
    02:00 +4°C° 0.6 mm 6 mps 730 mmHg 80%
    03:00 +4°C° 0.1 mm 6 mps 730 mmHg 81%
    04:00 +3°C° 0.1 mm 5 mps 730 mmHg 82%
    05:00 +3°C° 0.1 mm 5 mps 730 mmHg 83%
    06:00 +3°C° 0.1 mm 5 mps 730 mmHg 85%
    07:00 +3°C° 0.1 mm 5 mps 730 mmHg 86%
    08:00 +3°C° 0.1 mm 5 mps 730 mmHg 87%
    09:00 +5°C° 0.3 mm 5 mps 730 mmHg 86%
    10:00 +4°C° 0.3 mm 6 mps 730 mmHg 85%
    11:00 +4°C° 0.3 mm 6 mps 731 mmHg 85%
    12:00 +5°C° 0.3 mm 7 mps 731 mmHg 84%
    13:00 +5°C° 0.3 mm 7 mps 732 mmHg 83%
    14:00 +5°C° 0.3 mm 7 mps 733 mmHg 82%
    15:00 +5°C° 0.5 mm 7 mps 734 mmHg 83%
    16:00 +4°C° 0.5 mm 7 mps 734 mmHg 84%
    17:00 +4°C° 0.5 mm 7 mps 735 mmHg 85%
    18:00 +4°C° 0.3 mm 8 mps 736 mmHg 84%
    19:00 +4°C° 0.3 mm 8 mps 737 mmHg 82%
    20:00 +4°C° 0.3 mm 8 mps 738 mmHg 81%
    21:00 +4°C° 0.1 mm 7 mps 739 mmHg 81%
    22:00 +4°C° 0.1 mm 7 mps 739 mmHg 80%
    23:00 +3°C° 0.1 mm 7 mps 740 mmHg 79%

    25 October, Thursday

    Time Temperature Precipitation Wind Pressure Humidity
    00:00 +3°C° 0 mm 6 mps 740 mmHg 79%
    01:00 +3°C° 0 mm 6 mps 740 mmHg 78%
    02:00 +2°C° 0 mm 6 mps 741 mmHg 78%
    03:00 +2°C° 0 mm 5 mps 741 mmHg 80%
    04:00 +2°C° 0 mm 5 mps 741 mmHg 81%
    05:00 +2°C° 0 mm 5 mps 741 mmHg 83%
    06:00 +2°C° 0 mm 5 mps 741 mmHg 84%
    07:00 +2°C° 0 mm 5 mps 741 mmHg 84%
    08:00 +3°C° 0 mm 4 mps 741 mmHg 84%
    09:00 +3°C° 0.1 mm 5 mps 741 mmHg 80%
    10:00 +5°C° 0.1 mm 5 mps 741 mmHg 76%
    11:00 +6°C° 0.1 mm 5 mps 741 mmHg 72%
    12:00 +6°C° 0.1 mm 4 mps 740 mmHg 71%
    13:00 +6°C° 0.1 mm 4 mps 740 mmHg 71%
    14:00 +6°C° 0.1 mm 4 mps 740 mmHg 71%
    15:00 +5°C° 0.2 mm 3 mps 739 mmHg 74%
    16:00 +4°C° 0.2 mm 3 mps 739 mmHg 77%
    17:00 +5°C° 0.2 mm 2 mps 739 mmHg 81%
    18:00 +4°C° 0.2 mm 2 mps 738 mmHg 82%
    19:00 +5°C° 0.2 mm 1 mps 738 mmHg 84%
    20:00 +5°C° 0.2 mm 1 mps 738 mmHg 86%
    21:00 +5°C° 0.1 mm 1 mps 738 mmHg 87%
    22:00 +4°C° 0.1 mm 1 mps 738 mmHg 88%
    23:00 +4°C° 0.1 mm 1 mps 738 mmHg 89%
    Show more